Location: Harwich
(41.7160°N, 69.9939°W)
Time: 13:50:41
(UTC+02:00)

First-Move - Visible Passes

Search period start: 17 September 2024 00:00
Search period end: 27 September 2024 00:00
Orbit: 524 x 579 km, 97.7° (Epoch: 16 September)

Date Brightness Start Highest point End Pass type
(mag) Time Alt. Az. Time Alt. Az. Time Alt. Az.
17 Sep ? 09:08:27 10° ENE 09:09:44 13° E 09:09:44 13° E visible
17 Sep ? 10:41:46 10° N 10:45:26 41° WNW 10:45:28 41° WNW visible
18 Sep ? 09:05:00 10° ENE 09:05:46 12° ENE 09:05:46 12° ENE visible
18 Sep ? 10:37:56 10° N 10:41:31 45° WNW 10:41:31 45° WNW visible
19 Sep ? 09:01:38 10° ENE 09:01:47 10° ENE 09:01:47 10° ENE visible
19 Sep ? 10:34:03 10° N 10:37:31 49° NW 10:37:31 49° NW visible
20 Sep ? 10:30:07 10° N 10:33:27 52° NW 10:33:27 52° NW visible
21 Sep ? 10:26:09 10° N 10:29:20 54° NNW 10:29:20 54° NNW visible
22 Sep ? 10:22:07 10° N 10:25:10 53° N 10:25:10 53° N visible
23 Sep ? 10:18:02 10° N 10:20:57 50° N 10:20:57 50° N visible
24 Sep ? 10:13:55 10° NNE 10:16:40 45° NNE 10:16:40 45° NNE visible
25 Sep ? 10:09:45 10° NNE 10:12:20 41° NNE 10:12:20 41° NNE visible
26 Sep ? 10:05:32 10° NNE 10:07:56 36° NNE 10:07:56 36° NNE visible
